SCP
1 1 1 0 0 0 0 0 0 0 0 0 0 0 0 0 0 0 0 0 1 1 0 0 1 1 1 1 1 1 1 1 1 1 1 1 1 1 1 1 1 1 1 1 1 1 0 1 1
1 1 1 0 0 0 0 0 0 0 0 0 0 0 0 0 0 0 0 1 1 1 0 0 1 1 1 1 1 1 1 1 1 1 1 1 1 1 1 1 1 1 1 1 1 1 0 1 1
1 1 0 0 0 0 0 0 0 0 0 0 0 0 0 0 0 0 0 1 1 1 1 1 1 1 1 1 1 1 1 1 1 1 1 1 1 1 1 1 1 1 1 1 1 1 1 1 1
1 1 0 0 0 0 0 0 0 0 0 0 0 0 0 0 0 1 1 1 1 1 1 1 1 1 1 1 1 1 1 1 1 1 1 2 2 2 1 1 1 1 1 1 1 1 1 1 1
1 0 0 0 0 0 0 0 0 0 0 0 0 0 0 0 1 1 1 1 1 1 1 1 1 1 1 1 1 1 1 1 1 1 1 2 2 2 2 1 1 1 1 1 1 1 1 1 1
1 0 0 0 0 0 0 0 0 0 0 1 1 0 0 1 1 1 1 0 0 0 0 1 1 1 1 1 1 1 1 1 1 1 1 1 1 2 2 2 2 1 1 1 1 1 1 1 1
0 0 0 0 0 0 0 0 0 0 0 1 1 1 1 1 1 1 1 0 0 0 0 0 0 1 1 1 1 1 1 1 1 1 1 1 1 1 1 2 2 2 1 1 1 1 1 1 1
0 0 0 0 0 0 0 0 0 0 1 1 1 1 1 1 1 1 0 0 0 0 0 0 0 0 0 0 0 0 0 1 1 1 1 1 1 1 1 2 2 2 1 1 1 1 1 1 1
0 0 0 0 0 0 0 0 0 1 1 1 1 1 1 1 1 1 0 0 0 0 0 0 0 0 0 0 0 0 0 0 1 1 1 1 1 1 1 1 1 1 1 2 2 1 1 1 1
0 0 0 0 0 0 0 0 0 1 1 1 1 1 1 1 1 1 0 0 0 0 0 0 0 0 0 0 0 0 0 0 0 0 0 0 0 1 1 1 1 1 1 1 1 1 1 1 1
0 0 0 0 0 0 0 0 0 1 1 1 1 1 1 1 1 1 1 0 0 0 0 0 0 0 0 0 0 0 0 0 0 0 0 0 0 0 1 1 1 1 1 1 1 1 1 1 1
0 0 1 0 0 0 0 0 0 0 1 1 1 1 1 1 1 1 1 0 0 0 0 0 0 0 0 0 0 0 0 0 0 0 0 0 0 0 0 1 1 1 1 1 1 1 1 1 1
0 0 1 1 1 1 0 0 0 0 1 1 1 1 0 0 0 1 1 1 1 1 1 1 0 0 0 0 0 0 0 0 0 0 0 0 0 0 0 0 1 1 1 1 1 1 1 1 1
0 0 1 1 1 1 0 0 0 1 1 1 1 1 1 1 1 1 1 1 1 1 1 0 0 0 0 0 0 0 0 0 0 0 0 0 0 0 0 0 0 1 1 1 1 1 1 1 1
1 0 1 1 1 1 0 0 0 1 1 1 1 1 1 1 1 1 1 1 1 1 0 0 0 0 0 0 0 0 0 0 0 0 0 0 0 0 0 0 0 0 0 0 1 1 1 1 1
0 0 1 1 1 1 0 0 0 1 1 1 1 1 1 1 1 1 1 1 1 1 0 0 0 0 0 0 0 0 0 0 0 0 0 0 0 0 0 0 0 0 0 0 0 1 1 1 1
0 0 0 1 1 1 0 0 0 1 1 1 1 1 1 1 1 1 1 1 1 0 0 0 0 0 0 0 0 0 0 0 0 0 0 0 0 0 0 0 0 0 0 0 0 0 1 1 1
0 0 0 0 1 1 0 0 0 1 1 1 1 1 1 1 1 1 1 1 0 0 0 0 0 0 0 0 0 0 0 0 0 0 0 0 0 0 0 0 0 0 0 0 0 0 0 0 0
0 0 0 0 0 0 0 0 1 1 1 1 0 0 1 1 1 0 0 0 0 0 0 0 0 0 0 0 0 0 0 0 0 0 0 0 0 0 0 0 0 0 0 0 0 0 0 0 0
0 0 0 0 0 0 0 0 0 1 1 1 0 0 1 1 0 0 0 0 0 0 0 0 0 0 0 0 0 0 0 0 0 0 0 0 0 0 0 0 0 0 0 0 0 0 0 0 0
0 0 0 0 0 0 0 0 0 0 0 0 0 0 0 0 0 0 0 0 0 0 0 0 0 0 0 0 0 0 0 0 0 0 0 0 0 0 0 0 0 0 0 0 0 0 0 0 0
0 0 0 0 0 0 0 0 0 0 0 0 0 0 0 0 0 0 0 0 0 0 0 0 0 0 0 0 0 0 0 0 0 0 0 0 0 0 0 0 0 0 0 0 0 0 0 0 0
0 0 0 0 0 0 0 0 0 0 0 0 0 0 0 0 0 0 0 0 0 0 0 0 0 0 0 0 0 0 0 0 0 0 0 0 0 0 0 0 0 0 0 0 0 0 0 0 0
0 0 0 0 0 0 0 0 0 0 0 0 0 0 0 0 0 0 0 0 0 0 0 0 0 0 0 0 0 0 0 0 0 0 0 0 0 0 0 0 0 0 0 0 0 0 0 0 0
0 0 0 0 0 0 0 0 0 0 0 0 0 0 0 0 0 0 0 0 0 0 0 0 0 0 0 0 0 0 0 0 0 0 0 0 0 0 0 0 0 0 0 0 0 0 0 0 0
0 0 0 0 0 0 0 0 0 0 0 0 0 0 0 0 0 0 0 0 0 0 0 0 0 0 0 0 0 0 0 0 0 0 0 0 0 0 0 0 0 0 0 0 0 0 0 0 0
0 0 0 0 0 0 0 0 0 0 0 0 0 0 0 0 0 0 0 0 0 0 0 0 0 0 0 0 0 0 0 0 0 0 0 0 0 0 0 0 0 0 0 0 0 0 0 0 0
0 0 0 0 0 0 0 0 0 0 0 0 0 0 0 0 0 0 0 0 0 0 0 0 0 0 0 0 0 0 0 0 0 0 0 0 0 0 0 0 0 0 0 0 0 0 0 0 0
0 0 0 0 0 0 0 0 0 0 0 0 0 0 0 0 0 0 0 0 0 0 0 0 0 0 0 0 0 0 0 0 0 0 0 0 0 0 0 0 0 0 0 0 0 0 0 0 0
0 0 0 0 0 0 0 0 0 0 0 0 0 0 0 0 0 0 0 0 0 0 0 0 0 0 0 0 0 0 0 0 0 0 0 0 0 0 0 0 0 0 0 0 0 0 0 0 0
Wind_Speed
7 4 3 2 3 3 1 1 1 1 3 5 8 10 8 5 4 3 2 3 7 7 5 5 6 6 5 4 3 3 2 2 2 2 1 1 2 2 2 2 2 2 2 2 2 2 2 3 3
3 4 2 2 3 2 1 2 2 2 6 7 7 7 6 5 4 4 1 4 7 7 5 5 6 5 4 3 2 2 1 1 1 1 1 1 1 2 2 2 2 2 2 2 2 2 1 2 1
4 2 1 2 1 3 3 2 3 3 5 5 5 5 5 3 3 3 3 5 6 5 4 4 7 6 4 3 2 1 1 1 1 1 2 2 2 3 3 3 3 3 3 3 3 3 2 2 1
3 2 2 2 0 2 3 3 4 5 5 5 6 6 4 3 2 4 5 6 6 5 3 4 6 5 4 3 2 1 0 1 1 2 2 3 3 4 5 5 5 5 4 4 4 4 3 3 3
2 3 3 1 1 2 0 2 5 6 4 5 7 6 3 1 4 6 6 6 6 4 3 3 5 4 3 2 2 0 1 1 2 3 4 4 4 5 6 6 6 6 6 6 6 5 5 5 4
3 3 3 0 2 1 0 2 5 7 6 6 7 5 2 2 4 5 5 5 6 5 3 2 3 3 3 2 1 1 2 3 4 4 5 5 6 7 7 7 7 8 8 8 7 7 7 6 6
3 3 2 1 1 1 1 2 4 5 5 4 6 6 2 2 4 5 5 5 4 4 3 2 2 2 2 2 2 3 4 4 5 5 6 6 7 7 8 8 8 9 10 9 9 8 9 8 8
3 4 1 1 1 2 1 3 3 5 4 3 5 7 5 5 5 5 4 3 3 2 2 2 2 1 1 2 4 4 5 5 6 6 7 7 7 8 8 8 8 9 10 10 10 9 10 10 9
3 4 1 2 3 3 1 3 2 3 5 3 2 5 7 7 6 5 3 2 1 2 1 1 0 1 1 2 3 3 5 6 5 5 7 6 3 4 5 6 7 8 9 10 10 10 10 10 10
3 2 4 4 4 4 2 4 5 4 4 3 3 4 7 7 7 6 5 4 2 2 1 1 1 1 0 1 1 1 2 3 3 2 3 2 2 3 4 6 8 8 9 9 9 9 9 8 4
2 4 3 3 4 3 2 2 4 8 4 7 9 9 8 7 6 6 5 5 4 3 2 1 1 1 1 1 1 1 1 2 2 3 3 2 2 2 3 2 4 4 5 4 5 5 3 3 3
2 4 4 3 2 1 2 2 3 5 8 10 12 11 9 8 8 7 6 5 5 4 3 2 2 2 2 1 1 1 1 2 2 3 3 1 1 2 2 2 2 2 2 2 2 2 3 4 4
3 4 3 2 1 2 2 2 3 4 6 9 11 10 10 9 7 6 6 6 6 4 3 2 2 3 2 2 1 2 2 2 2 2 2 2 1 2 2 2 2 2 2 2 2 3 3 4 4
5 3 2 3 3 2 3 3 3 6 8 10 11 10 9 9 8 6 6 6 5 4 3 3 3 3 3 2 1 2 2 2 2 2 3 2 1 1 2 2 2 2 2 2 2 3 3 3 3
2 1 2 2 3 2 2 3 6 8 9 10 10 9 8 8 8 8 8 7 6 5 4 4 4 3 3 2 2 2 2 2 2 2 3 3 2 2 2 2 2 2 2 3 2 3 2 3 3
1 2 2 5 3 2 4 7 9 7 10 9 8 7 7 7 7 7 7 6 6 5 4 3 4 3 2 1 2 2 2 2 2 2 2 3 3 2 2 2 2 3 2 2 2 2 2 2 2
2 1 3 5 4 4 5 8 7 6 9 8 7 6 7 6 6 6 7 7 6 6 5 4 3 2 2 1 1 2 2 3 2 2 2 3 3 3 2 2 2 3 2 2 2 1 2 2 3
3 2 3 4 4 5 6 9 8 6 8 8 6 5 6 6 7 7 6 6 6 5 5 4 3 2 1 1 2 2 3 3 2 2 3 3 3 3 3 2 3 2 1 2 2 2 2 2 2
5 3 4 6 5 6 8 9 8 6 7 6 5 5 6 6 5 6 6 6 6 4 4 3 2 1 1 1 1 1 2 3 3 3 3 4 3 3 3 2 2 2 1 2 2 2 2 2 1
4 3 4 5 4 5 5 6 5 5 8 9 9 8 7 6 5 5 5 4 4 4 3 3 2 1 0 1 1 2 2 2 3 3 4 4 4 4 3 2 2 2 2 2 2 1 1 1 1
4 5 5 5 3 2 1 6 3 1 2 4 5 7 8 10 9 7 5 5 4 4 3 3 2 1 0 0 0 1 2 2 3 3 3 4 4 4 3 3 3 3 2 2 2 2 2 2 1
4 7 7 4 1 3 1 1 5 1 3 4 4 5 6 8 8 7 6 6 5 4 3 3 2 1 0 0 0 1 1 2 3 3 3 5 4 4 3 3 3 3 2 2 3 2 2 2 2
7 6 4 2 2 2 1 3 5 1 3 4 5 6 6 7 8 8 7 7 5 4 4 3 2 1 1 0 0 1 1 2 3 3 4 4 4 4 4 3 3 3 2 3 2 2 2 2 2
3 3 5 5 5 2 4 5 4 4 6 5 4 5 6 7 7 7 6 5 4 4 3 3 2 1 1 1 0 0 1 2 3 4 4 4 4 4 4 3 3 3 3 3 2 2 2 2 2
4 6 5 6 5 5 2 3 5 5 5 7 8 7 7 7 7 7 7 6 5 5 4 3 2 1 1 1 1 1 1 2 2 3 4 4 3 3 4 4 3 3 3 3 3 2 2 2 3
4 8 7 3 3 5 4 1 4 3 4 5 7 7 7 7 7 8 8 7 6 6 4 3 3 2 1 1 2 1 1 1 2 3 3 3 3 4 4 4 4 4 3 3 2 2 2 2 2
4 3 6 6 1 1 3 1 3 1 2 3 5 5 7 7 7 7 7 6 6 5 5 5 4 2 2 1 1 1 1 2 2 3 3 3 3 4 4 5 5 4 3 2 1 1 2 2 2
5 7 5 4 2 1 3 3 5 6 6 5 5 6 6 6 6 6 6 6 5 5 4 4 4 3 2 1 0 0 1 2 2 3 4 4 4 4 5 5 4 4 3 2 1 1 2 1 2
2 2 5 4 5 5 2 6 7 9 8 7 7 7 7 7 7 6 6 5 5 4 4 4 3 2 1 1 0 1 1 2 2 3 4 4 4 4 5 5 4 4 3 3 1 1 1 1 2
4 5 6 4 2 4 3 8 6 7 7 7 7 6 6 6 6 6 6 5 4 4 4 4 3 3 2 2 1 0 1 2 3 3 4 4 4 4 4 4 4 4 3 3 2 2 2 1 2
Wind_Direction
184 131 89 58 49 48 56 261 157 44 54 57 74 82 84 68 78 123 236 145 137 144 155 145 135 130 126 122 118 122 128 132 135 136 132 130 140 143 146 146 139 133 130 123 106 93 84 92 80
128 128 119 58 79 85 269 231 127 113 130 120 83 76 77 76 86 101 101 128 132 142 149 142 135 131 130 128 124 129 145 159 174 191 203 215 208 198 198 195 186 174 174 171 158 154 141 116 93
144 159 124 78 124 172 199 222 156 110 106 99 82 57 67 81 94 115 160 142 129 137 150 150 141 138 136 134 138 136 177 214 241 242 239 244 245 232 225 221 218 213 205 201 188 187 183 178 198
138 85 60 63 179 227 188 189 138 105 75 65 98 74 50 33 111 148 154 141 132 142 154 153 142 138 133 128 119 91 27 281 268 271 275 269 260 251 244 237 230 227 223 216 205 202 201 203 218
95 91 66 35 305 303 210 122 102 94 86 83 95 94 81 31 126 142 148 143 138 146 158 169 151 144 141 140 141 96 331 309 283 278 275 275 274 264 253 249 243 236 232 224 214 213 215 216 224
66 70 75 60 282 304 322 99 87 92 104 108 103 111 145 178 150 156 149 144 147 154 159 173 168 169 173 186 214 257 279 289 296 292 288 284 281 277 269 260 255 246 240 234 225 219 221 225 229
131 108 133 182 285 315 182 120 105 111 113 123 126 115 158 210 184 163 150 141 140 150 155 174 194 204 207 219 243 265 276 290 300 303 298 292 289 284 279 271 262 254 246 239 234 227 225 226 230
140 102 86 203 209 265 233 118 123 119 121 116 115 137 177 209 185 144 132 128 136 144 157 181 187 204 246 268 265 277 288 295 300 306 308 306 298 291 287 281 269 262 253 244 239 236 231 227 229
87 79 176 217 196 237 202 115 102 79 95 67 93 154 173 168 147 128 116 97 123 126 143 156 155 223 244 245 266 290 299 309 309 313 316 319 312 298 290 287 282 273 266 255 245 240 237 232 233
86 139 215 214 192 197 187 146 142 103 98 93 95 127 147 150 145 143 152 156 152 161 144 129 97 81 57 301 346 322 316 319 313 303 303 306 304 295 297 296 294 286 276 266 255 248 243 236 229
136 190 211 204 202 189 167 163 145 135 166 183 173 170 166 159 156 162 167 166 166 167 145 135 131 95 79 38 9 348 329 316 312 308 301 305 316 307 303 300 301 295 286 276 266 256 239 226 216
177 228 212 201 182 187 166 154 144 171 195 183 173 171 167 168 172 173 170 166 153 148 163 160 134 85 61 52 17 0 336 321 317 314 319 324 321 310 298 286 289 285 279 272 267 254 242 235 227
206 232 229 185 146 222 158 167 168 187 176 164 165 167 174 176 176 177 165 153 149 152 162 148 106 81 67 50 1 7 331 322 313 318 315 317 313 306 302 291 285 282 275 265 259 257 251 243 235
209 195 222 188 192 233 189 210 165 204 171 164 170 179 183 178 170 161 149 143 148 155 155 135 113 100 85 60 9 338 327 324 327 321 314 320 313 303 305 301 296 283 273 263 253 249 249 246 239
184 147 288 240 213 237 163 264 229 198 173 175 184 187 185 181 165 160 159 155 152 148 137 130 123 97 82 49 4 352 326 329 331 321 323 329 324 311 308 300 294 282 274 271 267 262 250 251 246
53 82 272 263 196 191 137 256 258 193 176 187 197 191 177 177 165 159 157 149 142 128 114 101 100 95 80 48 0 337 332 337 329 322 321 327 330 328 322 311 296 288 289 283 266 249 251 254 248
26 288 267 284 205 177 181 243 258 196 181 191 196 185 177 169 156 158 156 144 139 131 126 112 104 104 89 37 3 348 344 335 323 319 316 319 323 321 313 302 296 298 294 284 279 247 228 244 252
227 244 265 264 229 186 210 245 253 205 192 194 187 177 175 170 168 158 148 139 131 127 122 113 108 105 81 21 5 353 345 329 321 313 306 314 313 315 316 302 304 314 310 294 280 264 248 235 238
188 215 258 264 223 198 227 247 249 211 192 187 177 176 168 165 156 146 143 134 125 118 111 112 109 92 64 21 345 327 314 308 314 311 308 312 311 316 314 306 310 314 293 276 275 263 261 248 213
193 230 260 271 241 207 243 272 268 205 190 180 176 175 163 146 143 145 142 135 132 133 129 121 108 97 79 223 238 241 260 279 283 301 315 312 309 310 310 295 293 296 291 296 287 252 247 255 184
222 213 223 243 311 331 41 341 337 331 139 146 160 161 156 158 160 160 151 147 143 148 151 135 138 135 155 264 309 337 345 334 331 321 314 309 308 308 298 291 285 287 270 269 264 233 206 229 241
232 227 220 221 89 293 121 269 288 241 137 154 165 158 160 158 158 160 157 156 162 169 157 148 157 172 252 18 32 337 322 305 286 287 294 307 310 310 304 295 286 281 270 263 263 240 210 193 220
218 223 224 229 157 319 303 155 283 160 169 193 189 176 170 166 164 167 167 166 168 167 159 163 162 193 303 349 42 17 315 280 290 299 308 313 310 305 304 302 296 289 274 269 267 265 231 202 198
199 46 29 44 68 314 251 153 239 224 200 188 192 184 174 168 167 166 164 157 162 168 163 162 159 246 300 342 354 195 296 302 317 318 318 317 310 306 309 306 291 281 271 266 257 247 238 221 209
90 78 24 2 14 264 263 135 235 243 192 175 180 189 185 174 164 163 164 168 175 179 181 173 167 233 277 308 307 280 273 294 303 302 307 313 313 308 306 309 297 284 271 264 250 244 250 226 211
163 134 153 190 230 285 352 146 256 260 180 169 172 181 184 184 178 177 180 181 185 190 186 180 183 218 256 279 292 289 284 287 290 296 298 301 297 294 301 310 305 294 284 272 250 246 250 233 222
137 153 167 140 193 309 331 344 316 288 190 184 185 185 194 193 188 186 186 185 188 190 190 187 186 209 241 265 297 293 296 301 305 310 310 305 304 307 316 323 319 316 311 291 256 247 260 253 233
147 148 96 106 134 309 314 238 227 223 224 221 208 207 211 200 192 187 186 189 192 192 189 183 182 193 211 229 282 315 310 309 310 322 325 320 318 321 327 331 329 332 332 327 296 274 275 261 254
135 116 109 118 149 152 241 265 229 203 204 200 208 207 200 193 190 189 191 191 188 179 174 181 186 177 183 197 231 12 330 324 330 330 324 323 325 331 336 338 338 342 342 337 337 320 317 295 281
171 174 143 144 209 159 174 265 268 201 197 189 197 198 192 187 186 185 185 181 178 176 179 186 188 179 192 193 170 287 327 340 342 333 329 334 336 336 337 344 351 352 352 349 355 332 334 317 302